• In Netherlands
  • List of Countries
  • For 7 days
  • Water Temperature
  • Satellite Maps
  • Weather Map
  • Weather Widgets
  • user-avatar
    Login

    Hourly Weather Salzburg

    Today, 27 April, Thursday

    Time Temperature Precipitation Wind Pressure Humidity
    00:00 -1°C° 1.4 mm 1 mps 619 mmHg 98%
    01:00 -1°C° 1.4 mm 1 mps 618 mmHg 98%
    02:00 -1°C° 0.8 mm 1 mps 618 mmHg 98%
    03:00 -1°C° 0.8 mm 1 mps 618 mmHg 98%
    04:00 -1°C° 0.8 mm 1 mps 618 mmHg 98%
    05:00 -1°C° 0.6 mm 1 mps 618 mmHg 98%
    06:00 -1°C° 0.6 mm 1 mps 618 mmHg 98%
    07:00 -1°C° 0.6 mm 1 mps 618 mmHg 98%
    08:00 -1°C° 0.7 mm 1 mps 619 mmHg 97%
    09:00 0°C° 0.7 mm 1 mps 619 mmHg 97%
    10:00 0°C° 0.7 mm 1 mps 620 mmHg 96%
    11:00 +1°C° 0.7 mm 1 mps 620 mmHg 96%
    12:00 +1°C° 0.7 mm 1 mps 620 mmHg 95%
    13:00 +2°C° 0.7 mm 1 mps 620 mmHg 95%
    14:00 +1°C° 0.8 mm 1 mps 620 mmHg 95%
    15:00 +1°C° 0.8 mm 1 mps 620 mmHg 96%
    16:00 +1°C° 0.8 mm 1 mps 620 mmHg 97%
    17:00 +1°C° 1.3 mm 1 mps 619 mmHg 97%
    18:00 0°C° 1.3 mm 1 mps 619 mmHg 98%
    19:00 0°C° 1.3 mm 1 mps 619 mmHg 98%
    20:00 0°C° 2.7 mm 1 mps 619 mmHg 98%
    21:00 -3°C° 2.7 mm 2 mps 618 mmHg 98%
    22:00 -3°C° 2.7 mm 2 mps 618 mmHg 98%
    23:00 -3°C° 2.5 mm 2 mps 618 mmHg 98%

    Tomorrow, 28 April, Friday

    Time Temperature Precipitation Wind Pressure Humidity
    00:00 -4°C° 2.5 mm 2 mps 617 mmHg 98%
    01:00 -4°C° 2.5 mm 2 mps 617 mmHg 98%
    02:00 -4°C° 2 mm 2 mps 617 mmHg 98%
    03:00 -2°C° 2 mm 1 mps 616 mmHg 98%
    04:00 -2°C° 2 mm 1 mps 616 mmHg 98%
    05:00 -2°C° 0.9 mm 1 mps 616 mmHg 98%
    06:00 -2°C° 0.9 mm 1 mps 616 mmHg 98%
    07:00 -2°C° 0.9 mm 1 mps 616 mmHg 98%
    08:00 -1°C° 1.1 mm 1 mps 616 mmHg 98%
    09:00 -1°C° 1.1 mm 1 mps 617 mmHg 98%
    10:00 -1°C° 1.1 mm 1 mps 617 mmHg 98%
    11:00 0°C° 0.8 mm 1 mps 617 mmHg 98%
    12:00 0°C° 0.8 mm 1 mps 617 mmHg 98%
    13:00 0°C° 0.8 mm 1 mps 618 mmHg 98%
    14:00 -2°C° 1 mm 2 mps 618 mmHg 98%
    15:00 -2°C° 1 mm 2 mps 618 mmHg 98%
    16:00 -2°C° 1 mm 2 mps 618 mmHg 98%
    17:00 -3°C° 0.8 mm 2 mps 618 mmHg 98%
    18:00 -3°C° 0.8 mm 2 mps 619 mmHg 98%
    19:00 -4°C° 0.8 mm 2 mps 619 mmHg 98%
    20:00 -4°C° 0.9 mm 2 mps 620 mmHg 98%
    21:00 -4°C° 0.9 mm 2 mps 620 mmHg 98%
    22:00 -5°C° 0.9 mm 2 mps 621 mmHg 98%
    23:00 -5°C° 0.9 mm 2 mps 621 mmHg 98%

    Day after tomorrow, 29 April, Saturday

    Time Temperature Precipitation Wind Pressure Humidity
    00:00 -5°C° 0.9 mm 2 mps 621 mmHg 98%
    01:00 -5°C° 0.9 mm 2 mps 621 mmHg 98%
    02:00 -5°C° 0.5 mm 2 mps 622 mmHg 98%
    03:00 -5°C° 0.5 mm 2 mps 622 mmHg 98%
    04:00 -5°C° 0.5 mm 2 mps 622 mmHg 97%
    05:00 -5°C° 0.2 mm 2 mps 622 mmHg 97%
    06:00 -5°C° 0.2 mm 2 mps 623 mmHg 97%
    07:00 -2°C° 0.2 mm 1 mps 623 mmHg 96%
    08:00 -1°C° 0.1 mm 1 mps 623 mmHg 96%
    09:00 0°C° 0.1 mm 1 mps 623 mmHg 95%
    10:00 +1°C° 0.1 mm 1 mps 624 mmHg 94%
    11:00 +1°C° 0.1 mm 1 mps 624 mmHg 93%
    12:00 0°C° 0.1 mm 0 mps 624 mmHg 92%
    13:00 +1°C° 0.1 mm 0 mps 624 mmHg 91%
    14:00 +1°C° 0 mm 0 mps 623 mmHg 90%
    15:00 +1°C° 0 mm 0 mps 623 mmHg 90%
    16:00 +1°C° 0 mm 0 mps 623 mmHg 89%
    17:00 0°C° 0 mm 0 mps 623 mmHg 92%
    18:00 0°C° 0 mm 1 mps 622 mmHg 94%
    19:00 -2°C° 0 mm 1 mps 622 mmHg 97%
    20:00 -3°C° 0 mm 1 mps 622 mmHg 97%
    21:00 -3°C° 0 mm 1 mps 621 mmHg 96%
    22:00 -4°C° 0 mm 1 mps 621 mmHg 96%
    23:00 -6°C° 0 mm 2 mps 621 mmHg 95%

    30 April, Sunday

    Time Temperature Precipitation Wind Pressure Humidity
    00:00 -7°C° 0 mm 2 mps 621 mmHg 95%
    01:00 -7°C° 0 mm 2 mps 621 mmHg 94%
    02:00 -7°C° 0 mm 2 mps 621 mmHg 94%
    03:00 -7°C° 0 mm 2 mps 621 mmHg 94%
    04:00 -7°C° 0 mm 2 mps 621 mmHg 93%
    05:00 -6°C° 0 mm 2 mps 622 mmHg 92%
    06:00 -4°C° 0 mm 2 mps 622 mmHg 91%
    07:00 0°C° 0 mm 1 mps 623 mmHg 90%
    08:00 +1°C° 0 mm 1 mps 623 mmHg 90%
    09:00 +2°C° 0 mm 1 mps 623 mmHg 90%
    10:00 +2°C° 0 mm 2 mps 623 mmHg 89%
    11:00 +3°C° 0 mm 2 mps 623 mmHg 88%
    12:00 +4°C° 0 mm 2 mps 623 mmHg 87%
    13:00 +4°C° 0 mm 2 mps 623 mmHg 86%
    14:00 +4°C° 0 mm 2 mps 623 mmHg 86%
    15:00 +5°C° 0 mm 2 mps 623 mmHg 86%
    16:00 +5°C° 0 mm 2 mps 623 mmHg 85%
    17:00 +4°C° 0 mm 2 mps 622 mmHg 88%
    18:00 +3°C° 0 mm 2 mps 622 mmHg 91%
    19:00 +2°C° 0 mm 2 mps 622 mmHg 94%
    20:00 +1°C° 0 mm 2 mps 622 mmHg 94%
    21:00 -1°C° 0 mm 2 mps 622 mmHg 94%
    22:00 -2°C° 0 mm 2 mps 622 mmHg 95%
    23:00 -3°C° 0 mm 2 mps 621 mmHg 94%

    1 May, Monday

    Time Temperature Precipitation Wind Pressure Humidity
    00:00 -3°C° 0 mm 2 mps 621 mmHg 93%
    01:00 -4°C° 0 mm 2 mps 621 mmHg 92%
    02:00 -4°C° 0 mm 2 mps 620 mmHg 92%
    03:00 -5°C° 0 mm 2 mps 620 mmHg 91%
    04:00 -5°C° 0 mm 2 mps 620 mmHg 90%
    05:00 -4°C° 0 mm 2 mps 620 mmHg 89%
    06:00 -2°C° 0 mm 2 mps 621 mmHg 87%
    07:00 -1°C° 0 mm 2 mps 621 mmHg 86%
    08:00 +1°C° 0 mm 2 mps 621 mmHg 84%
    09:00 +2°C° 0 mm 3 mps 622 mmHg 83%
    10:00 +3°C° 0 mm 3 mps 622 mmHg 81%
    11:00 +4°C° 0 mm 3 mps 622 mmHg 80%
    12:00 +5°C° 0 mm 3 mps 622 mmHg 78%
    13:00 +7°C° 0 mm 3 mps 622 mmHg 77%
    14:00 +7°C° 0 mm 3 mps 622 mmHg 77%
    15:00 +8°C° 0 mm 3 mps 622 mmHg 77%
    16:00 +8°C° 0 mm 3 mps 622 mmHg 77%
    17:00 +5°C° 0 mm 3 mps 622 mmHg 80%
    18:00 +3°C° 0 mm 3 mps 622 mmHg 84%
    19:00 +2°C° 0 mm 3 mps 621 mmHg 87%
    20:00 +1°C° 0 mm 3 mps 621 mmHg 87%
    21:00 0°C° 0 mm 3 mps 621 mmHg 87%
    22:00 -1°C° 0 mm 3 mps 622 mmHg 87%
    23:00 -2°C° 0 mm 2 mps 622 mmHg 86%

    2 May, Tuesday

    Time Temperature Precipitation Wind Pressure Humidity
    00:00 -2°C° 0 mm 2 mps 622 mmHg 85%
    01:00 -2°C° 0 mm 2 mps 622 mmHg 84%
    02:00 -3°C° 0 mm 2 mps 622 mmHg 84%
    03:00 -3°C° 0 mm 2 mps 622 mmHg 83%
    04:00 -3°C° 0 mm 2 mps 622 mmHg 83%
    05:00 -2°C° 0 mm 2 mps 622 mmHg 82%
    06:00 +1°C° 0 mm 2 mps 623 mmHg 81%
    07:00 +4°C° 0 mm 1 mps 624 mmHg 80%
    08:00 +5°C° 0 mm 1 mps 625 mmHg 77%
    09:00 +7°C° 0 mm 1 mps 625 mmHg 74%
    10:00 +8°C° 0 mm 1 mps 626 mmHg 71%
    11:00 +9°C° 0 mm 1 mps 626 mmHg 70%
    12:00 +9°C° 0 mm 2 mps 626 mmHg 69%
    13:00 +9°C° 0 mm 2 mps 627 mmHg 69%
    14:00 +9°C° 0.1 mm 2 mps 627 mmHg 71%
    15:00 +9°C° 0.1 mm 2 mps 627 mmHg 73%
    16:00 +9°C° 0.1 mm 2 mps 627 mmHg 76%
    17:00 +8°C° 0.1 mm 1 mps 626 mmHg 82%
    18:00 +6°C° 0.1 mm 1 mps 626 mmHg 88%
    19:00 +5°C° 0.1 mm 1 mps 625 mmHg 95%
    20:00 +4°C° 0 mm 1 mps 625 mmHg 95%
    21:00 +3°C° 0 mm 1 mps 625 mmHg 96%
    22:00 +2°C° 0 mm 1 mps 625 mmHg 96%
    23:00 +2°C° 0 mm 1 mps 625 mmHg 96%
    Show more